Time,TemperatureF,DewpointF,PressureIn,WindDirection,WindDirectionDegrees,WindSpeedMPH,WindSpeedGustMPH,Humidity,HourlyPrecipIn,Conditions,Clouds,dailyrainin,SoftwareType,DateUTC
2013-07-17 00:00:00,79.0,74.5,30.21,West,265,0.0,0.0,86,0.00,,,0.00,Wunderground v.1.15,2013-07-17 04:00:00,
2013-07-17 00:05:00,78.9,74.4,30.20,West,265,0.0,0.0,86,0.00,,,0.00,Wunderground v.1.15,2013-07-17 04:05:00,
2013-07-17 00:15:00,78.9,74.7,30.20,WSW,239,0.0,0.0,87,0.00,,,0.00,Wunderground v.1.15,2013-07-17 04:15:00,
2013-07-17 00:20:00,79.0,75.1,30.20,West,266,0.0,0.0,88,0.00,,,0.00,Wunderground v.1.15,2013-07-17 04:20:00,
2013-07-17 00:25:00,78.9,74.7,30.20,West,260,0.0,0.0,87,0.00,,,0.00,Wunderground v.1.15,2013-07-17 04:25:00,
2013-07-17 00:30:00,78.8,74.9,30.20,West,260,0.0,0.0,88,0.00,,,0.00,Wunderground v.1.15,2013-07-17 04:30:00,
2013-07-17 00:35:00,78.6,74.7,30.20,West,268,0.0,0.0,88,0.00,,,0.00,Wunderground v.1.15,2013-07-17 04:35:00,
2013-07-17 00:45:00,78.5,74.6,30.20,West,273,0.0,0.0,88,0.00,,,0.00,Wunderground v.1.15,2013-07-17 04:45:00,
2013-07-17 00:50:00,78.3,74.5,30.20,West,273,0.0,0.0,88,0.00,,,0.00,Wunderground v.1.15,2013-07-17 04:50:00,
2013-07-17 01:00:00,78.2,74.7,30.20,West,273,0.0,0.0,89,0.00,,,0.00,Wunderground v.1.15,2013-07-17 05:00:00,
2013-07-17 01:10:00,78.0,74.5,30.19,West,273,0.0,0.0,89,0.00,,,0.00,Wunderground v.1.15,2013-07-17 05:10:00,
2013-07-17 01:15:00,78.0,74.5,30.19,West,273,0.0,0.0,89,0.00,,,0.00,Wunderground v.1.15,2013-07-17 05:15:00,
2013-07-17 01:25:00,77.9,74.7,30.19,West,273,0.0,0.0,90,0.00,,,0.00,Wunderground v.1.15,2013-07-17 05:25:00,
2013-07-17 01:35:00,77.8,74.6,30.19,West,273,0.0,0.0,90,0.00,,,0.00,Wunderground v.1.15,2013-07-17 05:35:00,
2013-07-17 01:45:00,77.6,74.4,30.19,West,273,0.0,0.0,90,0.00,,,0.00,Wunderground v.1.15,2013-07-17 05:45:00,
2013-07-17 01:55:00,77.5,74.3,30.19,West,273,0.0,0.0,90,0.00,,,0.00,Wunderground v.1.15,2013-07-17 05:55:00,
2013-07-17 02:05:00,77.4,74.2,30.19,West,265,0.0,0.0,90,0.00,,,0.00,Wunderground v.1.15,2013-07-17 06:05:00,
2013-07-17 02:10:00,77.4,74.2,30.19,West,275,0.0,0.0,90,0.00,,,0.00,Wunderground v.1.15,2013-07-17 06:10:00,
2013-07-17 02:20:00,77.5,74.7,30.18,West,277,0.0,1.0,91,0.00,,,0.00,Wunderground v.1.15,2013-07-17 06:20:00,
2013-07-17 02:30:00,77.5,74.7,30.18,West,263,1.0,1.0,91,0.00,,,0.00,Wunderground v.1.15,2013-07-17 06:30:00,
2013-07-17 02:35:00,77.6,74.8,30.18,WSW,239,0.0,1.0,91,0.00,,,0.00,Wunderground v.1.15,2013-07-17 06:35:00,
2013-07-17 02:45:00,77.7,74.5,30.18,WSW,240,0.0,0.0,90,0.00,,,0.00,Wunderground v.1.15,2013-07-17 06:45:00,
2013-07-17 02:50:00,77.8,75.0,30.18,West,265,0.0,0.0,91,0.00,,,0.00,Wunderground v.1.15,2013-07-17 06:50:00,
2013-07-17 03:00:00,77.5,74.3,30.18,WNW,292,0.0,0.0,90,0.00,,,0.00,Wunderground v.1.15,2013-07-17 07:00:00,
2013-07-17 03:05:00,77.4,74.2,30.18,WSW,250,0.0,0.0,90,0.00,,,0.00,Wunderground v.1.15,2013-07-17 07:05:00,
2013-07-17 03:15:00,77.4,74.6,30.18,West,259,0.0,0.0,91,0.00,,,0.00,Wunderground v.1.15,2013-07-17 07:15:00,
2013-07-17 03:25:00,77.2,74.0,30.18,West,272,0.0,0.0,90,0.00,,,0.00,Wunderground v.1.15,2013-07-17 07:25:00,
2013-07-17 03:35:00,77.1,74.3,30.17,West,279,0.0,0.0,91,0.00,,,0.00,Wunderground v.1.15,2013-07-17 07:35:00,
2013-07-17 03:45:00,77.1,73.9,30.18,WNW,294,0.0,0.0,90,0.00,,,0.00,Wunderground v.1.15,2013-07-17 07:45:00,
2013-07-17 03:55:00,77.1,73.9,30.18,West,279,0.0,0.0,90,0.00,,,0.00,Wunderground v.1.15,2013-07-17 07:55:00,
2013-07-17 04:00:00,77.1,73.9,30.17,WNW,285,1.0,1.0,90,0.00,,,0.00,Wunderground v.1.15,2013-07-17 08:00:00,
2013-07-17 04:10:00,77.0,73.8,30.17,West,269,0.0,0.0,90,0.00,,,0.00,Wunderground v.1.15,2013-07-17 08:10:00,
2013-07-17 04:15:00,76.9,73.7,30.17,NW,306,1.0,4.0,90,0.00,,,0.00,Wunderground v.1.15,2013-07-17 08:15:00,
2013-07-17 04:25:00,76.9,73.7,30.17,WNW,297,1.0,3.0,90,0.00,,,0.00,Wunderground v.1.15,2013-07-17 08:25:00,
2013-07-17 04:35:00,76.8,73.6,30.17,West,275,1.0,3.0,90,0.00,,,0.00,Wunderground v.1.15,2013-07-17 08:35:00,
2013-07-17 04:40:00,76.8,73.6,30.17,West,275,1.0,1.0,90,0.00,,,0.00,Wunderground v.1.15,2013-07-17 08:40:00,
2013-07-17 04:50:00,76.8,73.6,30.17,West,279,0.0,0.0,90,0.00,,,0.00,Wunderground v.1.15,2013-07-17 08:50:00,
2013-07-17 04:55:00,76.7,73.5,30.17,WNW,283,0.0,1.0,90,0.00,,,0.00,Wunderground v.1.15,2013-07-17 08:55:00,
2013-07-17 05:05:00,76.6,73.4,30.17,West,269,1.0,2.0,90,0.00,,,0.00,Wunderground v.1.15,2013-07-17 09:05:00,
2013-07-17 05:15:00,76.5,73.3,30.17,WNW,290,1.0,1.0,90,0.00,,,0.00,Wunderground v.1.15,2013-07-17 09:15:00,
2013-07-17 05:25:00,76.4,73.6,30.17,WSW,257,1.0,1.0,91,0.00,,,0.00,Wunderground v.1.15,2013-07-17 09:25:00,
2013-07-17 05:35:00,76.4,73.6,30.18,WNW,298,3.0,4.0,91,0.00,,,0.00,Wunderground v.1.15,2013-07-17 09:35:00,
2013-07-17 05:45:00,76.4,73.6,30.17,NW,306,1.0,4.0,91,0.00,,,0.00,Wunderground v.1.15,2013-07-17 09:45:00,
2013-07-17 05:50:00,76.5,74.0,30.17,NW,325,2.0,2.0,92,0.00,,,0.00,Wunderground v.1.15,2013-07-17 09:50:00,
2013-07-17 06:00:00,76.6,74.1,30.17,WNW,288,2.0,2.0,92,0.00,,,0.00,Wunderground v.1.15,2013-07-17 10:00:00,
2013-07-17 06:10:00,76.5,74.0,30.17,WNW,301,2.0,2.0,92,0.00,,,0.00,Wunderground v.1.15,2013-07-17 10:10:00,
2013-07-17 06:15:00,76.4,73.9,30.17,NW,307,3.0,3.0,92,0.00,,,0.00,Wunderground v.1.15,2013-07-17 10:15:00,
2013-07-17 06:25:00,76.3,74.1,30.17,West,281,4.0,5.0,93,0.00,,,0.00,Wunderground v.1.15,2013-07-17 10:25:00,
2013-07-17 06:35:00,76.3,73.8,30.17,WNW,298,5.0,5.0,92,0.00,,,0.00,Wunderground v.1.15,2013-07-17 10:35:00,
2013-07-17 06:40:00,76.3,73.8,30.17,NW,316,4.0,6.0,92,0.00,,,0.00,Wunderground v.1.15,2013-07-17 10:40:00,
2013-07-17 06:50:00,76.3,74.1,30.17,WNW,301,4.0,6.0,93,0.00,,,0.00,Wunderground v.1.15,2013-07-17 10:50:00,
2013-07-17 07:00:00,76.4,74.2,30.18,NW,325,4.0,4.0,93,0.00,,,0.00,Wunderground v.1.15,2013-07-17 11:00:00,
2013-07-17 07:05:00,76.4,74.2,30.18,West,279,4.0,5.0,93,0.00,,,0.00,Wunderground v.1.15,2013-07-17 11:05:00,
2013-07-17 07:15:00,76.6,74.4,30.18,WNW,291,5.0,5.0,93,0.00,,,0.00,Wunderground v.1.15,2013-07-17 11:15:00,
2013-07-17 07:25:00,76.9,74.4,30.18,WNW,287,4.0,7.0,92,0.00,,,0.00,Wunderground v.1.15,2013-07-17 11:25:00,
2013-07-17 07:35:00,77.2,74.4,30.19,WNW,301,5.0,9.0,91,0.00,,,0.00,Wunderground v.1.15,2013-07-17 11:35:00,
2013-07-17 07:45:00,77.6,74.4,30.19,NW,313,5.0,5.0,90,0.00,,,0.00,Wunderground v.1.15,2013-07-17 11:45:00,
2013-07-17 07:50:00,77.8,74.3,30.18,WNW,302,5.0,9.0,89,0.00,,,0.00,Wunderground v.1.15,2013-07-17 11:50:00,
2013-07-17 08:00:00,77.9,74.4,30.19,NW,305,5.0,5.0,89,0.00,,,0.00,Wunderground v.1.15,2013-07-17 12:00:00,
2013-07-17 08:10:00,78.1,74.6,30.18,WNW,283,4.0,6.0,89,0.00,,,0.00,Wunderground v.1.15,2013-07-17 12:10:00,
2013-07-17 08:15:00,78.3,74.5,30.18,WNW,287,4.0,8.0,88,0.00,,,0.00,Wunderground v.1.15,2013-07-17 12:15:00,
2013-07-17 08:25:00,78.5,74.6,30.19,NW,308,5.0,5.0,88,0.00,,,0.00,Wunderground v.1.15,2013-07-17 12:25:00,
2013-07-17 08:30:00,78.7,74.8,30.19,WNW,288,5.0,6.0,88,0.00,,,0.00,Wunderground v.1.15,2013-07-17 12:30:00,
2013-07-17 08:35:00,78.8,74.9,30.19,NW,304,5.0,6.0,88,0.00,,,0.00,Wunderground v.1.15,2013-07-17 12:35:00,
2013-07-17 08:45:00,79.3,75.1,30.19,WNW,292,5.0,6.0,87,0.00,,,0.00,Wunderground v.1.15,2013-07-17 12:45:00,
2013-07-17 08:55:00,79.7,75.1,30.19,WNW,291,6.0,8.0,86,0.00,,,0.00,Wunderground v.1.15,2013-07-17 12:55:00,
2013-07-17 09:00:00,80.1,75.5,30.19,NW,308,6.0,8.0,86,0.00,,,0.00,Wunderground v.1.15,2013-07-17 13:00:00,
2013-07-17 09:10:00,80.9,76.0,30.19,WNW,294,4.0,5.0,85,0.00,,,0.00,Wunderground v.1.15,2013-07-17 13:10:00,
2013-07-17 09:20:00,81.1,75.8,30.19,NW,323,5.0,5.0,84,0.00,,,0.00,Wunderground v.1.15,2013-07-17 13:20:00,
2013-07-17 09:30:00,82.1,76.4,30.18,WNW,282,5.0,5.0,83,0.00,,,0.00,Wunderground v.1.15,2013-07-17 13:30:00,
2013-07-17 09:40:00,83.2,76.8,30.18,NW,325,4.0,5.0,81,0.00,,,0.00,Wunderground v.1.15,2013-07-17 13:40:00,
2013-07-17 09:45:00,83.8,76.6,30.18,NW,311,3.0,5.0,79,0.00,,,0.00,Wunderground v.1.15,2013-07-17 13:45:00,
2013-07-17 09:55:00,84.6,77.0,30.18,NW,311,3.0,3.0,78,0.00,,,0.00,Wunderground v.1.15,2013-07-17 13:55:00,
2013-07-17 10:00:00,85.0,77.8,30.18,WNW,301,2.0,2.0,79,0.00,,,0.00,Wunderground v.1.15,2013-07-17 14:00:00,
2013-07-17 10:10:00,85.7,78.0,30.19,NE,37,3.0,3.0,78,0.00,,,0.00,Wunderground v.1.15,2013-07-17 14:10:00,
2013-07-17 10:20:00,86.3,77.0,30.19,NNE,24,0.0,0.0,74,0.00,,,0.00,Wunderground v.1.15,2013-07-17 14:20:00,
2013-07-17 10:30:00,86.8,77.5,30.19,NW,304,1.0,4.0,74,0.00,,,0.00,Wunderground v.1.15,2013-07-17 14:30:00,
2013-07-17 10:40:00,87.5,77.4,30.19,NNE,17,1.0,1.0,72,0.00,,,0.00,Wunderground v.1.15,2013-07-17 14:40:00,
2013-07-17 10:45:00,87.7,77.1,30.18,NW,305,1.0,4.0,71,0.00,,,0.00,Wunderground v.1.15,2013-07-17 14:45:00,
2013-07-17 10:55:00,87.8,76.8,30.18,NNW,329,2.0,2.0,70,0.00,,,0.00,Wunderground v.1.15,2013-07-17 14:55:00,
2013-07-17 11:05:00,88.4,77.4,30.18,NNE,26,1.0,1.0,70,0.00,,,0.00,Wunderground v.1.15,2013-07-17 15:05:00,
2013-07-17 11:10:00,88.7,76.8,30.18,NNE,14,1.0,1.0,68,0.00,,,0.00,Wunderground v.1.15,2013-07-17 15:10:00,
2013-07-17 11:20:00,88.8,76.9,30.17,WNW,293,1.0,3.0,68,0.00,,,0.00,Wunderground v.1.15,2013-07-17 15:20:00,
2013-07-17 11:30:00,89.1,76.7,30.17,North,360,1.0,1.0,67,0.00,,,0.00,Wunderground v.1.15,2013-07-17 15:30:00,
2013-07-17 11:40:00,88.1,76.2,30.17,ESE,115,0.0,0.0,68,0.00,,,0.00,Wunderground v.1.15,2013-07-17 15:40:00,
2013-07-17 11:45:00,88.1,77.5,30.17,SE,141,0.0,0.0,71,0.00,,,0.00,Wunderground v.1.15,2013-07-17 15:45:00,
2013-07-17 11:55:00,87.2,78.7,30.17,SE,138,0.0,0.0,76,0.00,,,0.00,Wunderground v.1.15,2013-07-17 15:55:00,
2013-07-17 12:00:00,86.6,78.9,30.17,SE,142,0.0,0.0,78,0.00,,,0.00,Wunderground v.1.15,2013-07-17 16:00:00,
2013-07-17 12:10:00,86.3,78.2,30.17,SE,146,0.0,0.0,77,0.00,,,0.00,Wunderground v.1.15,2013-07-17 16:10:00,
2013-07-17 12:15:00,86.5,79.6,30.17,SE,146,0.0,0.0,80,0.00,,,0.00,Wunderground v.1.15,2013-07-17 16:15:00,
2013-07-17 12:25:00,85.6,78.7,30.17,SE,146,0.0,0.0,80,0.00,,,0.00,Wunderground v.1.15,2013-07-17 16:25:00,
2013-07-17 12:35:00,85.1,79.0,30.17,SE,140,0.0,0.0,82,0.00,,,0.00,Wunderground v.1.15,2013-07-17 16:35:00,
2013-07-17 12:45:00,84.7,78.2,30.16,SSE,150,0.0,0.0,81,0.00,,,0.00,Wunderground v.1.15,2013-07-17 16:45:00,
2013-07-17 12:50:00,85.0,78.9,30.16,SE,136,0.0,0.0,82,0.00,,,0.00,Wunderground v.1.15,2013-07-17 16:50:00,
2013-07-17 13:00:00,84.9,78.8,30.16,SSE,147,0.0,0.0,82,0.00,,,0.00,Wunderground v.1.15,2013-07-17 17:00:00,
2013-07-17 13:10:00,85.3,78.8,30.15,SSE,161,0.0,0.0,81,0.00,,,0.00,Wunderground v.1.15,2013-07-17 17:10:00,
2013-07-17 13:20:00,85.3,78.8,30.15,SE,133,0.0,0.0,81,0.00,,,0.00,Wunderground v.1.15,2013-07-17 17:20:00,
2013-07-17 13:30:00,85.2,79.1,30.15,SSE,166,0.0,0.0,82,0.00,,,0.00,Wunderground v.1.15,2013-07-17 17:30:00,
2013-07-17 13:40:00,85.4,78.9,30.15,SSE,161,0.0,0.0,81,0.00,,,0.00,Wunderground v.1.15,2013-07-17 17:40:00,
2013-07-17 13:50:00,85.2,79.1,30.15,SSE,154,0.0,0.0,82,0.00,,,0.00,Wunderground v.1.15,2013-07-17 17:50:00,
2013-07-17 13:55:00,85.0,78.9,30.15,SSE,159,0.0,0.0,82,0.00,,,0.00,Wunderground v.1.15,2013-07-17 17:55:00,
2013-07-17 14:05:00,85.0,79.3,30.14,SSE,151,0.0,0.0,83,0.00,,,0.00,Wunderground v.1.15,2013-07-17 18:05:00,
2013-07-17 14:15:00,85.0,79.3,30.13,South,179,0.0,0.0,83,0.00,,,0.00,Wunderground v.1.15,2013-07-17 18:15:00,
2013-07-17 14:25:00,84.9,79.2,30.14,SSE,155,0.0,0.0,83,0.00,,,0.00,Wunderground v.1.15,2013-07-17 18:25:00,
2013-07-17 14:35:00,84.8,79.1,30.13,SSW,194,1.0,6.0,83,0.00,,,0.00,Wunderground v.1.15,2013-07-17 18:35:00,
2013-07-17 14:40:00,85.0,79.3,30.13,SSW,202,3.0,3.0,83,0.00,,,0.00,Wunderground v.1.15,2013-07-17 18:40:00,
2013-07-17 14:50:00,84.8,79.4,30.11,SSW,198,1.0,5.0,84,0.00,,,0.00,Wunderground v.1.15,2013-07-17 18:50:00,
2013-07-17 14:55:00,84.8,79.1,30.11,South,189,5.0,5.0,83,0.00,,,0.00,Wunderground v.1.15,2013-07-17 18:55:00,
2013-07-17 15:05:00,84.6,79.2,30.12,SSW,196,7.0,8.0,84,0.00,,,0.00,Wunderground v.1.15,2013-07-17 19:05:00,
2013-07-17 15:15:00,84.7,79.0,30.11,South,180,6.0,7.0,83,0.00,,,0.00,Wunderground v.1.15,2013-07-17 19:15:00,
2013-07-17 15:25:00,84.5,78.8,30.12,SSW,209,6.0,6.0,83,0.00,,,0.00,Wunderground v.1.15,2013-07-17 19:25:00,
2013-07-17 15:35:00,84.4,76.8,30.12,WNW,283,2.0,5.0,78,0.00,,,0.00,Wunderground v.1.15,2013-07-17 19:35:00,
2013-07-17 15:40:00,84.2,74.6,30.12,WSW,244,2.0,5.0,73,0.00,,,0.00,Wunderground v.1.15,2013-07-17 19:40:00,
2013-07-17 15:50:00,83.0,73.4,30.10,WNW,296,4.0,4.0,73,0.00,,,0.00,Wunderground v.1.15,2013-07-17 19:50:00,
2013-07-17 16:00:00,81.2,74.4,30.12,NW,317,5.0,5.0,80,0.00,,,0.00,Wunderground v.1.15,2013-07-17 20:00:00,
2013-07-17 16:10:00,80.3,73.9,30.13,NNE,23,4.0,7.0,81,0.00,,,0.00,Wunderground v.1.15,2013-07-17 20:10:00,
2013-07-17 16:15:00,79.8,74.2,30.14,ENE,77,5.0,9.0,83,0.00,,,0.00,Wunderground v.1.15,2013-07-17 20:15:00,
2013-07-17 16:25:00,76.2,71.7,30.12,North,355,9.0,10.0,86,0.26,,,0.05,Wunderground v.1.15,2013-07-17 20:25:00,
2013-07-17 16:30:00,75.1,70.6,30.12,ESE,121,7.0,7.0,86,0.70,,,0.12,Wunderground v.1.15,2013-07-17 20:30:00,